Regional Weather Roundup
Issued by NWS

Home | Current Version | Previous Version | Text Only | Print | Product List | Glossary On
Versions: 1 2 3 4 5 6 7 8 9 10 11 12 13 14 15 16 17 18 19 20 21 22 23 24 25 26 27 28 29 30 31 32 33 34 35 36 37 38 39 40 41 42 43 44 45 46 47 48 49 50
000
ASUS43 KDMX 301307
RWRIA

WEATHER ROUNDUP FOR IOWA
NATIONAL WEATHER SERVICE DES MOINES IA
800 AM CDT SAT AUG 30 2014

NOTE: "FAIR" INDICATES FEW OR NO CLOUDS BELOW 12,000 FEET WITH NO
SIGNIFICANT WEATHER AND/OR OBSTRUCTIONS TO VISIBILITY.

* - THESE STATIONS ARE NOT NWS STATIONS...THUS NOT UNDER NWS
QUALITY CONTROL.  THEY ALSO DO NOT REPORT WEATHER SUCH
AS PRECIPITATION OR FOG.

IAZ001>003-012>014-020>022-031>034-043>046-301400-
   NORTHWEST IOWA

CITY           SKY/WX    TMP DP  RH WIND       PRES   REMARKS
CARROLL *      CLOUDY    66  66 100 W6        29.90R FOG
CHEROKEE *     CLOUDY    64  64 100 CALM      29.91R FOG
DENISON *      FOG       64  64 100 VRB6      29.90R VSB 1
LE MARS *      CLOUDY    64  64 100 W8        29.92S FOG
ORANGE CITY *  CLOUDY    66  64  94 NW7       29.92R
SHELDON *      CLOUDY    64  64 100 NW5       29.90R FOG
SIOUX CITY     CLOUDY    65  63  93 NW8       29.93R FOG
SPENCER        PTSUNNY   65  63  93 W5        29.89R FOG
STORM LAKE *   FOG       64  64 100 W8        29.91R VSB 0
$$

IAZ055>058-069>071-079>083-090>094-301400-
   SOUTHWEST IOWA

CITY           SKY/WX    TMP DP  RH WIND       PRES   REMARKS
ATLANTIC *     CLOUDY    66  66 100 W5        29.90S FOG
AUDUBON *      CLOUDY    68  66  94 NW6       29.91S FOG
CLARINDA *     CLOUDY    66  66 100 VRB5      29.93S FOG
COUNCIL BLFS * SUNNY     64  64 100 NW5       29.92R
CRESTON *      CLOUDY    66  66 100 NW8       29.91S FOG
HARLAN  *      CLOUDY    66  66 100 W6        29.95R FOG
LAMONI         FOG       66  65  96 W7        29.91R VSB 1/4
RED OAK *      CLOUDY    66  66 100 NW6       29.92S FOG
SHENANDOAH *   SUNNY     66  66 100 CALM      29.93R
$$

IAZ047>049-059>061-072>074-084-301400-
   CENTRAL IOWA

CITY           SKY/WX    TMP DP  RH WIND       PRES   REMARKS
AMES           CLOUDY    67  65  93 W8        29.87R
ANKENY *       CLOUDY    66  66 100 NW10      29.87R
CHARITON *     FOG       66  64  94 SW7       29.89R VSB 1/4
DES MOINES     CLOUDY    68  65  90 NW9       29.87R
GRINNELL*      CLOUDY    66  64  94 W9        29.88R
KNOXVILLE *    MOSUNNY   66  64  94 W6        29.87R
MARSHALLTOWN   CLOUDY    67  65  93 W9        29.85R
PELLA *        MOSUNNY   68  66  94 W5        29.88R
PERRY *        CLOUDY    66  66 100 NW3       29.89R FOG
$$

IAZ004>006-015-016-023>025-035-036-301400-
   NORTH CENTRAL IOWA

CITY           SKY/WX    TMP DP  RH WIND       PRES   REMARKS
ALGONA *       CLOUDY    68  66  94 NW7G14    29.87R
CLARION *      CLOUDY    66  66 100 NW9       29.86R
ESTHERVILLE    PTSUNNY   65  64  97 NW6       29.87S
FORT DODGE *   CLOUDY    64  64 100 NW5       29.89R VSB 1
MASON CITY     CLOUDY    67  66  97 W9        29.86R
FOREST CITY *  FOG       66  66 100 NW6       29.86R VSB 3/4
IOWA FALLS *   CLOUDY    66  64  94 W9        29.87R
$$

IAZ007>011-017>019-026>030-037>042-050>054-066-301400-
   NORTHEAST IOWA

CITY           SKY/WX    TMP DP  RH WIND       PRES   REMARKS
CEDAR RAPIDS   CLOUDY    68  67  96 W13       29.83R
CHARLES CITY * PTSUNNY   66  66 100 W9        29.83R FOG
CLINTON *      CLOUDY    70  66  88 SW12G20   29.84S
DECORAH *      CLOUDY    66  66 100 VRB6      29.79R FOG
DUBUQUE        CLOUDY    67  66  97 SW12      29.80S FOG
MONTICELLO *   CLOUDY    68  68 100 SW9G20    29.80S
OELWEIN *      CLOUDY    68  66  94 W13       29.82R
WATERLOO       CLOUDY    68  65  90 W10       29.82R
$$

IAZ064-065-067-068-078-301400-
   EAST CENTRAL IOWA

CITY           SKY/WX    TMP DP  RH WIND       PRES   REMARKS
DAVENPORT      CLOUDY    69  65  86 W17G23    29.85R
IOWA CITY      PTSUNNY   69  67  93 W14       29.85R
MT. PLEASANT * MOSUNNY   70  68  94 SW6       29.88R
MUSCATINE *    MOSUNNY   70  66  88 W13       29.85R
QUAD CITIES    CLOUDY    71  67  87 SW13G22   29.84R
$$

IAZ062-063-075>077-085>089-095>099-301400-
   SOUTHEAST IOWA

CITY           SKY/WX    TMP DP  RH WIND       PRES   REMARKS
BURLINGTON     PTSUNNY   70  68  93 SW10      29.88R
FAIRFIELD *    PTSUNNY   68  66  94 SW7       29.88R
FORT MADISON * PTSUNNY   72  70  94 SW8       29.89S
KEOKUK *       MOSUNNY   72  68  88 SW8       29.88S
OSKALOOSA *      N/A     66  66 100 W7        29.88R
CENTERVILLE *  CLOUDY    66  66 100 SW6       29.91R
OTTUMWA        SUNNY     67  65  93 W7        29.87R
WASHINGTON *   SUNNY     68  68 100 W8        29.87R
$$

ABBREVIATIONS USED IN REMARKS
   TC - TEMPERATURES IN CELSIUS
  WCI - WIND CHILL INDEX
   HX - HEAT INDEX
  VSB - VISIBILITY
$$




USA.gov is the U.S. government's official web portal to all federal, state and local government web resources and services.